EW5526 Weather Reports


Display with metric or nautical units.
time (UTC)temp
F
wind
direction
speed
MPH
gust
MPH
rain 1hr
in
rain 24hr
in
rain mn
in
humidity
%
barometer
mb
20260507093022 73 16 2.0 7.0 0.00 0.00 0.00 46 1010.6
20260507090021 73 74 3.0 4.0 0.00 0.00 0.00 44 1010.8
20260507083021 72 90 3.0 9.0 0.00 0.00 0.00 45 1010.8
20260507080020 71 355 1.0 3.0 0.00 0.00 0.00 46 1010.5
20260507073020 69 341 3.0 8.0 0.00 0.00 0.00 46 1010.7
20260507070019 68 26 3.0 5.0 0.00 0.00 0.00 46 1011.0
20260507063019 66 28 3.0 9.0 0.00 0.00 0.00 47 1010.6
20260507060048 64 5 9.0 10.0 0.00 0.00 0.00 47 1010.1
20260507053047 63 360 3.0 8.0 0.00 0.00 0.00 48 1009.6
20260507050017 63 17 10.0 10.0 0.00 0.00 0.00 46 1009.2
20260507043047 62 9 9.0 14.0 0.00 0.00 0.00 48 1009.0
20260507040046 64 5 5.0 10.0 0.00 0.00 0.00 44 1009.0
20260507033045 64 35 11.0 11.0 0.00 0.00 0.00 44 1009.3
20260507030045 63 24 1.0 5.0 0.00 0.00 0.00 47 1009.8
20260507023044 63 14 4.0 9.0 0.00 0.00 0.00 48 1010.4
20260507020044 63 43 3.0 5.0 0.00 0.00 0.00 52 1010.7
20260507013043 62 24 2.0 9.0 0.00 0.00 0.00 57 1010.9
20260507010043 62 30 6.0 6.0 0.00 0.00 0.00 55 1011.2
20260507000042 65 32 3.0 6.0 0.00 0.00 0.00 56 1011.6
20260506233041 64 99 2.0 8.0 0.00 0.00 0.00 57 1012.2
20260506230041 63 21 1.0 3.0 0.00 0.00 0.00 68 1012.4
20260506223040 63 19 0.0 3.0 0.00 0.00 0.00 69 1012.9
20260506220040 63 17 3.0 5.0 0.00 0.00 0.00 68 1012.7
20260506213040 64 17 3.0 5.0 0.00 0.00 0.00 66 1012.6
20260506210039 62 321 2.0 3.0 0.00 0.00 0.00 72 1013.0
20260506200038 64 344 0.0 0.0 0.00 0.00 0.00 64 1013.0
20260506193038 66 344 0.0 2.0 0.00 0.00 0.00 55 1012.4
20260506190039 67 307 2.0 8.0 0.00 0.00 0.00 53 1011.6
20260506183037 68 11 2.0 4.0 0.00 0.00 0.00 53 1011.4
20260506180036 66 348 2.0 3.0 0.00 0.00 0.00 62 1012.0
20260506173035 67 39 0.0 2.0 0.00 0.00 0.00 70 1012.0
20260506170035 68 36 0.0 0.0 0.00 0.00 0.00 68 1012.3
20260506153034 70 340 4.0 6.0 0.00 0.00 0.00 55 1011.9
20260506150033 69 45 3.0 9.0 0.00 0.00 0.00 58 1012.4
20260506140032 70 106 3.0 4.0 0.00 0.00 0.00 55 1014.1
20260506133031 69 101 6.0 6.0 0.00 0.00 0.00 55 1014.4
20260506123031 69 116 3.0 11.0 0.00 0.00 0.00 55 1014.5
20260506120030 68 98 3.0 8.0 0.00 0.00 0.00 59 1014.6
20260506110028 70 85 5.0 5.0 0.00 0.00 0.00 47 1014.6
20260506103028 70 114 6.0 10.0 0.00 0.00 0.00 47 1014.9
20260506100028 70 115 2.0 9.0 0.00 0.00 0.00 48 1015.0